Regional Weather Roundup
Issued by NWS

Home | Current Version | Previous Version | Graphics & Text | Print | Product List | Glossary On
Versions: 1 2 3 4 5 6 7 8 9 10 11 12 13 14 15 16 17 18 19 20 21 22 23 24 25 26 27
000
ASUS45 KBOU 191207
RWRCO

WEATHER ROUNDUP FOR COLORADO
NATIONAL WEATHER SERVICE DENVER/BOULDER CO
600 AM MDT THU OCT 19 2017

NOTE: "FAIR" INDICATES FEW OR NO CLOUDS BELOW 12000 FEET WITH NO
SIGNIFICANT WEATHER AND/OR OBSTRUCTIONS TO VISIBILITY.

COZ001>005-013-030-031-191300-
...NORTHWEST COLORADO...

CITY           SKY/WX    TMP DP  RH WIND       PRES   REMARKS
CRAIG          FAIR      22  17  81 SW3       30.16F
HAYDEN         FAIR      36  15  42 E14       30.19R
MEEKER         FAIR      31  20  63 CALM      30.16S
RABBIT EARS PA FAIR      43   5  21 SE5       30.35F
STEAMBOAT SPGS FAIR      28  16  62 CALM      30.20S
WALDEN         NOT AVBL
$$

COZ006>008-011-191300-
...WEST CENTRAL VALLEYS...

CITY           SKY/WX    TMP DP  RH WIND       PRES   REMARKS
GRAND JUNCTION FAIR      43  19  38 E3        30.09R
MONTROSE       FAIR      41  20  43 S8        30.16S
EAGLE          FAIR      28  19  69 CALM      30.28R
RIFLE          FAIR      36  21  54 SE3       30.16R
DELTA          FAIR      39  17  40 SE3       30.14S
NUCLA          FAIR      41  16  36 SE5       30.19R
$$

COZ017>023-064>068-191300-
...SOUTHWEST COLORADO...

CITY           SKY/WX    TMP DP  RH WIND       PRES   REMARKS
DURANGO        FAIR      33  22  63 NE5       30.20R WCI  29
CORTEZ         MOCLDY    39  28  64 CALM      30.15R
PAGOSA SPRINGS FAIR      33  18  55 CALM      30.26S
TELLURIDE      NOT AVBL
WOLF CREEK PAS NOT AVBL
$$

COZ009-010-012-014-032>034-037-058>063-191300-
...CENTRAL COLORADO...

CITY           SKY/WX    TMP DP  RH WIND       PRES   REMARKS
ASPEN          FAIR      36  20  52 CALM      30.22F
BUENA VISTA    FAIR      34  14  44 NW3       30.29S
COPPER MTN     FAIR      45   1  16 S13       30.45S
BERTHOUD PASS  FAIR      34  27  75 W17       30.47R WCI  23
COTTONWOOD PAS FAIR      50   5  16 W3        30.35S
GUNNISON       FAIR      24  13  62 CALM      30.32S
KREMMLING      FAIR      23  21  93 CALM      30.31R
LEADVILLE      FAIR      28   7  41 N3        30.35R
SALIDA         NOT AVBL
SUNLIGHT       FAIR      39   3  22 S7        30.40S
WILKERSON PASS FAIR      37   1  22 SW12      30.44S
$$

COZ069>075-191300-
...SAN LUIS VALLEY/SANGRE DE CRISTO MOUNTAINS...

CITY           SKY/WX    TMP DP  RH WIND       PRES   REMARKS
ALAMOSA        FAIR      24  17  74 SW5       30.27S WCI  18
DEL NORTE      FAIR      39  15  37 W16       30.28S
LA VETA PASS   FAIR      43  14  31 SW9       30.49R
SAGUACHE       FAIR      36  14  41 N12       30.29R
$$

COZ035-036-038>040-191300-
...NORTHERN COLORADO FRONT RANGE...

CITY           SKY/WX    TMP DP  RH WIND       PRES   REMARKS
DENVER INTL AP FAIR      45  22  40 W8        30.08S
DMNS CITY PARK   N/A     39  26  60 SE5       30.08S
AURORA         PTCLDY    46  24  42 CALM      30.09S
FRONT RANGE AP FAIR      43  27  52 SW8       30.09S
ERIE MUNI ARPT FAIR      34  28  78 S3        30.14S
BOULDER MUN AP FAIR      43  27  52 W3        30.09S
CENTENNIAL     FAIR      47  24  40 S8        30.10S
BROOMFIELD     FAIR      46  21  36 CALM      30.10S
FORT COLLINS   FAIR      41  30  65 CALM      30.09R
LONGMONT       FAIR      35  28  76 W6        30.11S WCI  30
$$

COZ041-046-047-076>085-087-088-191300-
...PIKES PEAK/PALMER DIVIDE AND SOUTHERN FOOTHILLS...

CITY           SKY/WX    TMP DP  RH WIND       PRES   REMARKS
COLO. SPRINGS  FAIR      48  25  40 CALM      30.16R
A. F. ACADEMY  CLEAR     34  22  63 N8        30.15S WCI  27
SCHRIEVER AFB  FAIR      46  23  40 MISG      30.15S
CHEYENNE MTN   NOT AVBL
ELLICOTT       FAIR     N/A N/A N/A CALM      30.13F
FALCON         FAIR      47  20  34 S7        30.18S
FORT CARSON    FAIR      42  24  48 N6        30.12F
LIMON          FAIR      28  26  92 N6        30.13S WCI  22
MONUMENT HILL  NOT AVBL
CANON CITY     CLEAR     54  18  24 W14       30.12S
WALSENBURG     FAIR      45  21  39 SW9       30.16S
TRINIDAD       FAIR      42  25  50 NW10      30.15R
$$

COZ042>045-048>051-090-091-191300-
...NORTHEAST COLORADO...

CITY           SKY/WX    TMP DP  RH WIND       PRES   REMARKS
GREELEY ARPT   FAIR      31  27  85 W8        30.08S WCI  23
AKRON          FAIR      41  28  60 W13       30.07S HAZE
BURLINGTON     FAIR      41  33  73 SW5       30.09S
WRAY           FAIR      34  32  93 W5        30.07F WCI  30
YUMA           FAIR      34  30  86 CALM      30.07S
STERLING       FAIR      32  30  93 CALM      30.06S
HOLYOKE        FAIR      36  32  87 CALM      30.07F
FORT MORGAN    FAIR      38  24  56 E6        30.07F
$$

COZ086-089-092>099-191300-
...SOUTHEAST COLORADO...

CITY           SKY/WX    TMP DP  RH WIND       PRES   REMARKS
PUEBLO         FAIR      37  27  67 W3        30.10S
LA JUNTA       FAIR      40  32  73 W9        30.09S
LAMAR          LGT SNOW  34  29  82 SW6       30.07R WCI  29
SPRINGFIELD      N/A     42  38  85 W8        30.08R
$$




USA.gov is the U.S. government's official web portal to all federal, state and local government web resources and services.